| time (UTC) | temp F | wind direction | speed MPH | gust MPH | rain 1hr in | rain 24hr in | rain mn in | humidity % | barometer mb |
| 20260510233816 | 68 | 315 | 8.0 | 11.0 | 0.00 | 0.00 | 0.00 | 26 | 1020.4 |
| 20260510232816 | 68 | 293 | 4.0 | 5.0 | 0.00 | 0.00 | 0.00 | 26 | 1020.6 |
| 20260510231816 | 68 | 293 | 4.0 | 7.0 | 0.00 | 0.00 | 0.00 | 26 | 1020.6 |
| 20260510230816 | 68 | 315 | 5.0 | 8.0 | 0.00 | 0.00 | 0.00 | 26 | 1020.7 |
| 20260510225816 | 68 | 315 | 6.0 | 10.0 | 0.00 | 0.00 | 0.00 | 26 | 1020.7 |
| 20260510224816 | 68 | 293 | 9.0 | 12.0 | 0.00 | 0.00 | 0.00 | 25 | 1020.7 |
| 20260510223816 | 69 | 338 | 6.0 | 10.0 | 0.00 | 0.00 | 0.00 | 24 | 1020.8 |
| 20260510222815 | 68 | 338 | 5.0 | 6.0 | 0.00 | 0.00 | 0.00 | 24 | 1020.9 |
| 20260510221816 | 68 | 0 | 8.0 | 11.0 | 0.00 | 0.00 | 0.00 | 25 | 1020.9 |
| 20260510220815 | 68 | 293 | 6.0 | 8.0 | 0.00 | 0.00 | 0.00 | 25 | 1021.1 |
| 20260510215816 | 68 | 293 | 6.0 | 10.0 | 0.00 | 0.00 | 0.00 | 26 | 1021.1 |
| 20260510214816 | 68 | 315 | 7.0 | 11.0 | 0.00 | 0.00 | 0.00 | 25 | 1021.2 |
| 20260510213835 | 67 | 338 | 4.0 | 7.0 | 0.00 | 0.00 | 0.00 | 24 | 1021.2 |
| 20260510212818 | 68 | 338 | 11.0 | 14.0 | 0.00 | 0.00 | 0.00 | 24 | 1021.3 |
| 20260510211815 | 67 | 293 | 11.0 | 14.0 | 0.00 | 0.00 | 0.00 | 25 | 1021.2 |
| 20260510210836 | 67 | 315 | 8.0 | 13.0 | 0.00 | 0.00 | 0.00 | 23 | 1021.3 |
| 20260510205816 | 67 | 315 | 7.0 | 11.0 | 0.00 | 0.00 | 0.00 | 24 | 1021.3 |
| 20260510204815 | 67 | 315 | 9.0 | 13.0 | 0.00 | 0.00 | 0.00 | 27 | 1021.3 |
| 20260510203815 | 67 | 293 | 6.0 | 9.0 | 0.00 | 0.00 | 0.00 | 26 | 1021.2 |
| 20260510202815 | 67 | 315 | 6.0 | 9.0 | 0.00 | 0.00 | 0.00 | 25 | 1021.3 |
| 20260510201815 | 67 | 338 | 10.0 | 12.0 | 0.00 | 0.00 | 0.00 | 25 | 1021.4 |
| 20260510200815 | 66 | 293 | 10.0 | 14.0 | 0.00 | 0.00 | 0.00 | 27 | 1021.3 |
| 20260510195815 | 66 | 315 | 9.0 | 11.0 | 0.00 | 0.00 | 0.00 | 26 | 1021.4 |
| 20260510194817 | 67 | 315 | 11.0 | 14.0 | 0.00 | 0.00 | 0.00 | 25 | 1021.4 |
| 20260510193817 | 67 | 338 | 11.0 | 15.0 | 0.00 | 0.00 | 0.00 | 25 | 1021.4 |
| 20260510192818 | 66 | 315 | 9.0 | 11.0 | 0.00 | 0.00 | 0.00 | 28 | 1021.3 |
| 20260510191817 | 66 | 338 | 8.0 | 13.0 | 0.00 | 0.00 | 0.00 | 27 | 1021.3 |
| 20260510190815 | 65 | 293 | 2.0 | 3.0 | 0.00 | 0.00 | 0.00 | 27 | 1021.1 |
| 20260510185817 | 66 | 315 | 11.0 | 16.0 | 0.00 | 0.00 | 0.00 | 27 | 1021.2 |
| 20260510184838 | 66 | 23 | 9.0 | 17.0 | 0.00 | 0.00 | 0.00 | 28 | 1021.4 |
| 20260510183817 | 66 | 293 | 6.0 | 9.0 | 0.00 | 0.00 | 0.00 | 29 | 1021.4 |
| 20260510182817 | 66 | 338 | 9.0 | 13.0 | 0.00 | 0.00 | 0.00 | 28 | 1021.4 |
| 20260510181838 | 65 | 0 | 7.0 | 10.0 | 0.00 | 0.00 | 0.00 | 29 | 1021.5 |
| 20260510180817 | 65 | 338 | 9.0 | 12.0 | 0.00 | 0.00 | 0.00 | 28 | 1021.6 |
| 20260510175817 | 65 | 293 | 5.0 | 9.0 | 0.00 | 0.00 | 0.00 | 28 | 1021.7 |
| 20260510174817 | 64 | 0 | 9.0 | 14.0 | 0.00 | 0.00 | 0.00 | 30 | 1021.8 |
| 20260510173817 | 63 | 293 | 8.0 | 12.0 | 0.00 | 0.00 | 0.00 | 28 | 1022.0 |
| 20260510172817 | 64 | 293 | 12.0 | 16.0 | 0.00 | 0.00 | 0.00 | 28 | 1022.0 |
| 20260510171817 | 64 | 23 | 8.0 | 11.0 | 0.00 | 0.00 | 0.00 | 29 | 1021.9 |
| 20260510170817 | 64 | 315 | 8.0 | 10.0 | 0.00 | 0.00 | 0.00 | 30 | 1021.8 |
| 20260510165817 | 64 | 338 | 8.0 | 10.0 | 0.00 | 0.00 | 0.00 | 32 | 1021.9 |
| 20260510164821 | 63 | 23 | 2.0 | 4.0 | 0.00 | 0.00 | 0.00 | 32 | 1022.0 |
| 20260510163817 | 63 | 338 | 11.0 | 16.0 | 0.00 | 0.00 | 0.00 | 33 | 1022.1 |
| 20260510162817 | 61 | 293 | 7.0 | 11.0 | 0.00 | 0.00 | 0.00 | 34 | 1022.2 |
| 20260510161817 | 62 | 293 | 10.0 | 13.0 | 0.00 | 0.00 | 0.00 | 33 | 1022.1 |
| 20260510160817 | 62 | 293 | 7.0 | 11.0 | 0.00 | 0.00 | 0.00 | 33 | 1022.0 |
| 20260510155817 | 61 | 338 | 5.0 | 6.0 | 0.00 | 0.00 | 0.00 | 33 | 1022.1 |
| 20260510154817 | 61 | 225 | 2.0 | 4.0 | 0.00 | 0.00 | 0.00 | 36 | 1022.1 |
| 20260510153817 | 61 | 0 | 3.0 | 4.0 | 0.00 | 0.00 | 0.00 | 33 | 1022.2 |
| 20260510152816 | 60 | 23 | 4.0 | 6.0 | 0.00 | 0.00 | 0.00 | 36 | 1021.9 |
| 20260510151818 | 59 | 315 | 2.0 | 3.0 | 0.00 | 0.00 | 0.00 | 37 | 1021.7 |
| 20260510150837 | 59 | 315 | 3.0 | 4.0 | 0.00 | 0.00 | 0.00 | 38 | 1021.7 |
| 20260510145857 | 59 | 45 | 1.0 | 2.0 | 0.00 | 0.00 | 0.00 | 40 | 1021.5 |
| 20260510144817 | 58 | 315 | 3.0 | 5.0 | 0.00 | 0.00 | 0.00 | 39 | 1021.4 |
| 20260510143816 | 59 | 0 | 6.0 | 10.0 | 0.00 | 0.00 | 0.00 | 41 | 1021.1 |
| 20260510142816 | 57 | 315 | 4.0 | 6.0 | 0.00 | 0.00 | 0.00 | 41 | 1020.9 |
| 20260510141816 | 57 | 23 | 8.0 | 11.0 | 0.00 | 0.00 | 0.00 | 42 | 1021.0 |
| 20260510140816 | 56 | 23 | 4.0 | 6.0 | 0.00 | 0.00 | 0.00 | 44 | 1020.8 |
| 20260510135816 | 56 | 0 | 3.0 | 6.0 | 0.00 | 0.00 | 0.00 | 47 | 1020.6 |
| 20260510134837 | 55 | 0 | 3.0 | 5.0 | 0.00 | 0.00 | 0.00 | 48 | 1020.7 |
| 20260510133817 | 54 | 293 | 4.0 | 6.0 | 0.00 | 0.00 | 0.00 | 49 | 1020.7 |
| 20260510132816 | 53 | 315 | 5.0 | 8.0 | 0.00 | 0.00 | 0.00 | 54 | 1020.6 |
| 20260510131836 | 52 | 315 | 6.0 | 8.0 | 0.00 | 0.00 | 0.00 | 53 | 1020.7 |
| 20260510130816 | 51 | 293 | 4.0 | 8.0 | 0.00 | 0.00 | 0.00 | 56 | 1020.6 |
| 20260510125816 | 50 | 315 | 5.0 | 8.0 | 0.00 | 0.00 | 0.00 | 57 | 1020.6 |
| 20260510124816 | 50 | 293 | 4.0 | 5.0 | 0.00 | 0.00 | 0.00 | 57 | 1020.6 |
| 20260510123816 | 49 | 315 | 6.0 | 8.0 | 0.00 | 0.00 | 0.00 | 58 | 1020.4 |
| 20260510122816 | 49 | 293 | 5.0 | 7.0 | 0.00 | 0.00 | 0.00 | 60 | 1020.5 |
| 20260510121836 | 48 | 293 | 4.0 | 6.0 | 0.00 | 0.00 | 0.00 | 59 | 1020.4 |
| 20260510120816 | 48 | 293 | 4.0 | 6.0 | 0.00 | 0.00 | 0.00 | 61 | 1020.0 |
| 20260510115836 | 47 | 293 | 4.0 | 6.0 | 0.00 | 0.00 | 0.00 | 63 | 1019.8 |
| 20260510114817 | 47 | 293 | 2.0 | 3.0 | 0.00 | 0.00 | 0.00 | 64 | 1019.5 |
| 20260510113816 | 46 | 293 | 1.0 | 3.0 | 0.00 | 0.00 | 0.00 | 64 | 1019.2 |
| 20260510112816 | 46 | 0.0 | 0.0 | 0.00 | 0.00 | 0.00 | 63 | 1019.0 | |
| 20260510111816 | 46 | 293 | 2.0 | 3.0 | 0.00 | 0.00 | 0.00 | 62 | 1019.0 |
| 20260510110816 | 46 | 293 | 2.0 | 3.0 | 0.00 | 0.00 | 0.00 | 62 | 1018.7 |
| 20260510105836 | 46 | 293 | 2.0 | 3.0 | 0.00 | 0.00 | 0.00 | 62 | 1018.7 |
| 20260510104816 | 47 | 293 | 2.0 | 3.0 | 0.00 | 0.00 | 0.00 | 62 | 1018.6 |
| 20260510103816 | 47 | 293 | 3.0 | 3.0 | 0.00 | 0.00 | 0.00 | 62 | 1018.5 |
| 20260510102816 | 47 | 293 | 2.0 | 3.0 | 0.00 | 0.00 | 0.00 | 62 | 1018.3 |
| 20260510101816 | 47 | 293 | 3.0 | 3.0 | 0.00 | 0.00 | 0.00 | 62 | 1018.1 |
| 20260510100816 | 47 | 293 | 2.0 | 3.0 | 0.00 | 0.00 | 0.00 | 61 | 1018.1 |
| 20260510095836 | 47 | 293 | 3.0 | 4.0 | 0.00 | 0.00 | 0.00 | 61 | 1018.0 |
| 20260510094816 | 48 | 293 | 2.0 | 3.0 | 0.00 | 0.00 | 0.00 | 62 | 1017.7 |
| 20260510093816 | 48 | 315 | 3.0 | 5.0 | 0.00 | 0.00 | 0.00 | 61 | 1017.5 |
| 20260510092816 | 48 | 293 | 2.0 | 3.0 | 0.00 | 0.00 | 0.00 | 61 | 1017.6 |
| 20260510091816 | 48 | 293 | 1.0 | 2.0 | 0.00 | 0.00 | 0.00 | 60 | 1017.5 |
| 20260510090816 | 49 | 293 | 2.0 | 3.0 | 0.00 | 0.00 | 0.00 | 59 | 1017.2 |
| 20260510085816 | 49 | 315 | 3.0 | 5.0 | 0.00 | 0.00 | 0.00 | 59 | 1017.0 |
| 20260510084816 | 49 | 315 | 2.0 | 2.0 | 0.00 | 0.00 | 0.00 | 58 | 1017.1 |
| 20260510083816 | 49 | 293 | 2.0 | 3.0 | 0.00 | 0.00 | 0.00 | 57 | 1016.9 |
| 20260510082816 | 50 | 315 | 2.0 | 3.0 | 0.00 | 0.00 | 0.00 | 56 | 1016.7 |
| 20260510081816 | 50 | 315 | 2.0 | 3.0 | 0.00 | 0.00 | 0.00 | 55 | 1016.6 |
| 20260510080815 | 51 | 315 | 2.0 | 3.0 | 0.00 | 0.00 | 0.00 | 55 | 1016.5 |
| 20260510075835 | 51 | 315 | 2.0 | 3.0 | 0.00 | 0.00 | 0.00 | 54 | 1016.2 |
| 20260510074815 | 52 | 315 | 2.0 | 2.0 | 0.00 | 0.00 | 0.00 | 52 | 1016.3 |
| 20260510073816 | 52 | 315 | 1.0 | 2.0 | 0.00 | 0.00 | 0.00 | 52 | 1016.4 |
| 20260510072815 | 53 | 315 | 2.0 | 3.0 | 0.00 | 0.00 | 0.00 | 51 | 1016.3 |
| 20260510071816 | 53 | 315 | 2.0 | 2.0 | 0.00 | 0.00 | 0.00 | 50 | 1016.2 |
| 20260510070815 | 54 | 315 | 1.0 | 2.0 | 0.00 | 0.00 | 0.00 | 48 | 1016.1 |
| 20260510065815 | 54 | 0.0 | 0.0 | 0.00 | 0.00 | 0.00 | 46 | 1016.3 | |
| 20260510064815 | 55 | 0.0 | 0.0 | 0.00 | 0.00 | 0.00 | 47 | 1016.3 | |
| 20260510063835 | 55 | 315 | 2.0 | 3.0 | 0.00 | 0.00 | 0.00 | 46 | 1016.3 |
| 20260510062815 | 56 | 315 | 3.0 | 4.0 | 0.00 | 0.00 | 0.00 | 46 | 1016.1 |
| 20260510061815 | 56 | 315 | 2.0 | 3.0 | 0.00 | 0.00 | 0.00 | 45 | 1016.1 |
| 20260510060815 | 56 | 315 | 2.0 | 3.0 | 0.00 | 0.00 | 0.00 | 44 | 1015.9 |
| 20260510055815 | 57 | 315 | 2.0 | 4.0 | 0.00 | 0.00 | 0.00 | 44 | 1015.7 |
| 20260510054815 | 57 | 315 | 3.0 | 4.0 | 0.00 | 0.00 | 0.00 | 44 | 1015.3 |
| 20260510053817 | 57 | 293 | 4.0 | 5.0 | 0.00 | 0.00 | 0.00 | 44 | 1015.1 |
| 20260510052817 | 58 | 293 | 4.0 | 5.0 | 0.00 | 0.00 | 0.00 | 43 | 1014.8 |
| 20260510051837 | 59 | 315 | 4.0 | 8.0 | 0.00 | 0.00 | 0.00 | 42 | 1014.6 |
| 20260510050817 | 60 | 315 | 5.0 | 7.0 | 0.00 | 0.00 | 0.00 | 42 | 1014.5 |
| 20260510045817 | 60 | 315 | 4.0 | 6.0 | 0.00 | 0.00 | 0.00 | 40 | 1014.3 |
| 20260510044817 | 61 | 315 | 5.0 | 8.0 | 0.00 | 0.00 | 0.00 | 39 | 1014.4 |
| 20260510043817 | 62 | 315 | 4.0 | 6.0 | 0.00 | 0.00 | 0.00 | 40 | 1014.3 |
| 20260510042817 | 62 | 315 | 4.0 | 8.0 | 0.00 | 0.00 | 0.00 | 41 | 1014.2 |
| 20260510041837 | 63 | 315 | 3.0 | 5.0 | 0.00 | 0.00 | 0.00 | 43 | 1014.1 |
| 20260510040817 | 63 | 315 | 4.0 | 8.0 | 0.00 | 0.00 | 0.00 | 44 | 1014.0 |
| 20260510035837 | 63 | 315 | 4.0 | 9.0 | 0.00 | 0.00 | 0.00 | 46 | 1013.9 |
| 20260510034817 | 63 | 315 | 4.0 | 6.0 | 0.00 | 0.00 | 0.00 | 47 | 1013.8 |
| 20260510033818 | 63 | 315 | 3.0 | 4.0 | 0.00 | 0.00 | 0.00 | 48 | 1013.6 |
| 20260510032817 | 64 | 315 | 3.0 | 4.0 | 0.00 | 0.00 | 0.00 | 48 | 1013.5 |
| 20260510031817 | 64 | 293 | 3.0 | 3.0 | 0.00 | 0.00 | 0.00 | 47 | 1013.2 |
| 20260510030817 | 64 | 315 | 5.0 | 7.0 | 0.00 | 0.00 | 0.00 | 48 | 1012.9 |
| 20260510025817 | 64 | 315 | 3.0 | 5.0 | 0.00 | 0.00 | 0.00 | 48 | 1012.7 |
| 20260510024817 | 64 | 315 | 3.0 | 6.0 | 0.00 | 0.00 | 0.00 | 48 | 1012.4 |
| 20260510023817 | 64 | 293 | 5.0 | 8.0 | 0.00 | 0.00 | 0.00 | 48 | 1012.2 |
| 20260510022817 | 64 | 293 | 4.0 | 4.0 | 0.00 | 0.00 | 0.00 | 49 | 1012.1 |
| 20260510021817 | 64 | 293 | 4.0 | 7.0 | 0.00 | 0.00 | 0.00 | 48 | 1011.9 |
| 20260510020817 | 64 | 293 | 3.0 | 4.0 | 0.00 | 0.00 | 0.00 | 48 | 1011.6 |
| 20260510015818 | 65 | 293 | 2.0 | 3.0 | 0.00 | 0.00 | 0.00 | 48 | 1011.5 |
| 20260510014817 | 65 | 293 | 1.0 | 1.0 | 0.00 | 0.00 | 0.00 | 48 | 1011.1 |
| 20260510013817 | 65 | 270 | 1.0 | 2.0 | 0.00 | 0.00 | 0.00 | 47 | 1010.9 |
| 20260510012836 | 65 | 270 | 3.0 | 4.0 | 0.00 | 0.00 | 0.00 | 46 | 1010.7 |
| 20260510011817 | 66 | 293 | 4.0 | 7.0 | 0.00 | 0.00 | 0.00 | 45 | 1010.4 |
| 20260510010837 | 66 | 315 | 4.0 | 5.0 | 0.00 | 0.00 | 0.00 | 44 | 1010.3 |
| 20260510005816 | 67 | 293 | 4.0 | 5.0 | 0.00 | 0.00 | 0.00 | 44 | 1010.1 |
| 20260510004817 | 67 | 315 | 6.0 | 10.0 | 0.00 | 0.00 | 0.00 | 43 | 1010.0 |
| 20260510003816 | 68 | 315 | 9.0 | 13.0 | 0.00 | 0.00 | 0.00 | 42 | 1009.8 |
| 20260510002816 | 68 | 293 | 11.0 | 13.0 | 0.00 | 0.00 | 0.00 | 41 | 1009.7 |
| 20260510001816 | 68 | 315 | 5.0 | 9.0 | 0.00 | 0.00 | 0.00 | 40 | 1009.5 |
| 20260510000816 | 68 | 293 | 9.0 | 14.0 | 0.00 | 0.00 | 0.00 | 40 | 1009.5 |
| 20260509235816 | 69 | 293 | 12.0 | 16.0 | 0.00 | 0.00 | 0.00 | 40 | 1009.5 |
| 20260509234836 | 70 | 315 | 10.0 | 13.0 | 0.00 | 0.00 | 0.00 | 42 | 1009.3 |